STARLINK-2711, 48673

Orbit data source: Space-Track

STARLINK-2711, 48673 is a payload satellite owned by SpaceX/Seattle (US) in LEO that was launched on Wed, 26 May 2021 UTC via an FALCON 9 launch vehicle from the Air Force Eastern Test Range (AFETR). Payload-class satellites include a variety of spacecraft equipped with specific instruments for various scientific and technological missions. These include communications satellites like Starlink; space stations such as the ISS; scientific satellites like the Hubble; Earth observation satellites from companies like Planet Labs, Umbra, and HawkEye 360; GPS; miniature CubeSats for education and research; and military/defense satellites.

Loading next visibility...
Identifier
48673, 2021-044AM
Orbit
LEO
Country
Flag of USUS
Related business
Manufacturer
SpaceX/Seattle
Mission
Operational Commercial Communications
Bus & Motor
STARLINK, Unknown motor
Mass
260 kg wet, ~248 kg dry
Launch date (UTC)
2021-05-26 (5 years ago)
Launch vehicle
FALCON 9
Launch site
Air Force Eastern Test Range (AFETR)
Object type
Payload
Rocket body
Debris
Shape & HBR
Box + 1 Pan, 10.1 m
Radar Cross Section
13.562 m², Large (>1 m²)

Expand to show TLE details & history
Last TLE update: 2 days ago

TLE from 2 days ago
0 STARLINK-2711
1 48673U 21044AM  26171.21111488  .00001711  00000-0  71605-4 0  9995
2 48673  53.1557 357.8640 0000969  89.4457 270.6654 15.29361169279506
Epoch: 2026-06-20T05:04Z
TLE epoch observation values (Epoch: 2026-06-20T05:04:00.325Z)
Latitude
-0.00006°
Longitude
13.4336°
Altitude
478.612 km
Speed
7.628 km/s
True Right ascension
23h 51m 27s
True Declination
0° 00' 00"
Sunlit
Object was in daylight at epoch
Visualization orbit readout
Latitude
Unknown
Longitude
Unknown
Altitude
Unknown
Speed
Unknown
Apparent Right ascension
Unknown
Apparent Declination
Unknown
Sunlit
N/A
Visualization observer readout
Local Sidereal Time
21:35:44
Azimuth
Unknown
Elevation
Unknown
Doppler factor
Unknown
Orbital elements
Apogee altitude
478.642 km
Perigee altitude
477.313 km
Semi-major axis
6,856.115 km
Eccentricity
0.0001
Inclination
53.1557°
RAAN
357.864°
Arg. of periapsis
89.4457°
True anomaly
270.6543°
Mean anomaly
270.6654°
Eccentric anomaly
270.65985°
Mean motion
3.82319 °/min
Orbital period
94.16 mins
BSTAR
0.000071605
Loading maneuver chart data...
Computing Atmospheric mass density...

Documentation

Showing up to 5 results
|